Location: Unspecified
(0.0000°N, 0.0000°E)
Time: 10:28:39
(UTC+00:00)

Transit 2A Rocket - Visible Passes

Search period start: 22 February 2018 00:00
Search period end: 04 March 2018 00:00
Orbit: 587 x 917 km, 66.7° (Epoch: 20 February)

Date Brightness Start Highest point End Pass type
(mag) Time Alt. Az. Time Alt. Az. Time Alt. Az.
22 Feb 5.0 19:00:05 10° NNW 19:04:27 62° WSW 19:08:40 10° S visible
23 Feb 8.1 05:46:54 10° SSE 05:51:35 24° ESE 05:56:22 10° ENE visible
24 Feb 8.6 05:07:09 10° SE 05:09:12 12° ESE 05:11:16 10° E visible
24 Feb 7.7 19:19:35 10° WNW 19:21:56 14° WSW 19:24:14 10° SW visible
25 Feb 6.6 18:35:38 10° NW 18:39:34 33° WSW 18:43:26 10° S visible
26 Feb 7.0 05:21:21 10° S 05:26:47 38° ESE 05:32:23 10° NE visible
27 Feb 8.0 04:40:16 10° SSE 04:44:25 20° ESE 04:48:39 10° ENE visible
28 Feb 5.3 05:38:27 10° SSW 05:44:23 71° WNW 05:50:28 10° NNE visible
01 Mar 5.9 04:56:09 10° S 05:02:00 60° ESE 05:08:00 10° NNE visible
02 Mar 7.1 04:14:28 10° S 04:19:37 31° ESE 04:24:54 10° NE visible
03 Mar 8.0 03:33:50 10° SE 03:37:14 16° ESE 03:40:41 10° ENE visible
03 Mar 5.6 05:13:56 10° SW 05:19:37 45° WNW 05:25:24 10° N visible
